Location: Lafig�re
(44.4503°N, 4.0357°E)
Time: 00:47:48
(UTC+00:00)

ARGOS - Pass Details

Date: 26 January 2021
Orbit: 821 x 834 km, 98.4° (Epoch: 03 March)

Event Time Altitude Azimuth Distance (km) Brightness Sun altitude
Rises 17:19:18 0° 120° (ESE) 3,348 5.9 -6.5°
Reaches altitude 10° 17:22:16 10° 103° (ESE) 2,422 5.1 -7.0°
Maximum altitude 17:25:55 19° 60° (ENE) 1,880 4.4 -7.6°
Drops below altitude 10° 17:29:33 10° 17° (NNE) 2,438 5.3 -8.2°
Sets 17:32:33 0° 0° (N) 3,378 6.2 -8.7°
